Albert Lea, MN

2:24 PM CDT on July 22, 2017 (GMT -0500)
Albert Lea Municipal

Weather History for KAEL - February, 2013

Change the Weather History Date:

Saturday, February 16, 2013

  Actual Average Record
Temperature  
Mean Temperature 18 °F -  
Max Temperature 24 °F 28 °F 42 °F (2002)
Min Temperature 12 °F 14 °F -5 °F (2007)
Degree Days  
Heating Degree Days 47    
Moisture  
Dew Point 14 °F    
Average Humidity 85    
Maximum Humidity 93    
Minimum Humidity 69    
Precipitation  
Precipitation 0.00 in - - ()
Sea Level Pressure  
Sea Level Pressure 30.13 in    
Wind  
Wind Speed 4 mph (WNW)    
Max Wind Speed 8 mph    
Max Gust Speed 17 mph    
Visibility 9 miles    
Events Snow    
Averages and records for this station are not official NWS values.
T = Trace of Precipitation, MM = Missing Value Source: NWS Daily Summary

Daily Weather History Graph

Daily Weather History Graph

Search for Another Location

Airport or City:

Trip Planner

Search our weather history database for the weather conditions in past years. The results will help you decide how hot, cold, wet, or windy it might be!

Date:

Astronomy

Feb. 16, 2013 Rise Set
Actual Time 7:10 AM CST 5:45 PM CST
Civil Twilight 6:40 AM CST 6:14 PM CST
Nautical Twilight 6:07 AM CST 6:48 PM CST
Astronomical Twilight 5:34 AM CST 7:21 PM CST
Moon 10:09 AM CST (2/16) No Moon Set
Length of Visible Light 11h 34m
Length of Day
10h 35m
Waxing Crescent, 39% of the Moon is Illuminated
Feb 16
Waxing Crescent
Feb 17
First Quarter
Feb 25
Full
Mar 4
Last Quarter
Mar 11
New

Hourly Weather History & Observations

Time (CST) Temp. Windchill Dew Point Humidity Pressure Visibility Wind Dir Wind Speed Gust Speed Precip Events Conditions
12:10 AM 12.2 °F 1.7 °F 10.4 °F 92% 30.22 in 10.0 mi WNW 6.9 mph - N/A   Clear
12:29 AM 12.2 °F 4.3 °F 10.4 °F 92% 30.22 in 10.0 mi WNW 4.6 mph - N/A   Clear
12:50 AM 12.2 °F 0.7 °F 10.4 °F 92% 30.21 in 10.0 mi WNW 8.1 mph - N/A   Clear
1:09 AM 12.2 °F 4.3 °F 10.4 °F 92% 30.21 in 10.0 mi WNW 4.6 mph - N/A   Clear
1:29 AM 12.2 °F 2.9 °F 10.4 °F 92% 30.21 in 10.0 mi WNW 5.8 mph - N/A   Clear
1:50 AM 12.2 °F 0.7 °F 10.4 °F 92% 30.21 in 10.0 mi WNW 8.1 mph - N/A   Clear
2:09 AM 12.2 °F 0.7 °F 10.4 °F 92% 30.21 in 10.0 mi NW 8.1 mph 17.3 mph N/A   Scattered Clouds
2:29 AM 12.2 °F 4.3 °F 10.4 °F 92% 30.20 in 7.0 mi NW 4.6 mph - N/A Snow Light Snow
2:50 AM 12.2 °F 4.3 °F 10.4 °F 92% 30.20 in 10.0 mi NW 4.6 mph - N/A Snow Light Snow
3:09 AM 12.2 °F 4.3 °F 10.4 °F 92% 30.19 in 10.0 mi WNW 4.6 mph - N/A Snow Light Snow
3:29 AM 12.2 °F 2.9 °F 10.4 °F 92% 30.19 in 7.0 mi NW 5.8 mph - N/A Snow Light Snow
3:50 AM 12.2 °F 2.9 °F 10.4 °F 92% 30.17 in 4.0 mi NW 5.8 mph - N/A Snow Light Snow
4:09 AM 12.2 °F 2.9 °F 10.4 °F 92% 30.17 in 5.0 mi NW 5.8 mph - N/A Snow Light Snow
4:29 AM 12.2 °F 6.1 °F 10.4 °F 92% 30.17 in 7.0 mi NW 3.5 mph - N/A Snow Light Snow
4:49 AM 12.2 °F 6.1 °F 10.4 °F 92% 30.17 in 7.0 mi WNW 3.5 mph - N/A Snow Light Snow
5:09 AM 12.2 °F 6.1 °F 10.4 °F 92% 30.17 in 7.0 mi WNW 3.5 mph - N/A Snow Light Snow
5:30 AM 14.0 °F 8.2 °F 10.4 °F 86% 30.17 in 7.0 mi WNW 3.5 mph - N/A Snow Light Snow
6:09 AM 14.0 °F 8.2 °F 10.4 °F 86% 30.16 in 10.0 mi WNW 3.5 mph - N/A Snow Light Snow
6:30 AM 14.0 °F - 10.4 °F 86% 30.16 in 7.0 mi Calm Calm - N/A Snow Light Snow
6:49 AM 14.0 °F 8.2 °F 10.4 °F 86% 30.16 in 7.0 mi NW 3.5 mph - N/A Snow Light Snow
7:09 AM 14.0 °F 6.5 °F 10.4 °F 86% 30.16 in 7.0 mi NW 4.6 mph - N/A Snow Light Snow
7:30 AM 14.0 °F 3.9 °F 10.4 °F 86% 30.16 in 7.0 mi WNW 6.9 mph - N/A Snow Light Snow
7:49 AM 14.0 °F 8.2 °F 10.4 °F 86% 30.17 in 4.0 mi WNW 3.5 mph - N/A Snow Light Snow
8:09 AM 14.0 °F - 10.4 °F 86% 30.17 in 5.0 mi Calm Calm - N/A Snow Light Snow
8:30 AM 14.0 °F 5.1 °F 12.2 °F 93% 30.17 in 5.0 mi West 5.8 mph - N/A Snow Light Snow
8:49 AM 15.8 °F 8.6 °F 10.4 °F 79% 30.17 in 4.0 mi WNW 4.6 mph - N/A Snow Light Snow
9:09 AM 15.8 °F 8.6 °F 12.2 °F 86% 30.16 in 4.0 mi West 4.6 mph - N/A Snow Light Snow
9:30 AM 15.8 °F 10.2 °F 12.2 °F 86% 30.15 in 5.0 mi WNW 3.5 mph - N/A Snow Light Snow
9:49 AM 15.8 °F 10.2 °F 12.2 °F 86% 30.15 in 5.0 mi WNW 3.5 mph - N/A Snow Light Snow
10:09 AM 15.8 °F 10.2 °F 12.2 °F 86% 30.14 in 7.0 mi NW 3.5 mph - N/A Snow Light Snow
10:29 AM 17.6 °F 10.7 °F 12.2 °F 79% 30.14 in 7.0 mi WSW 4.6 mph - N/A Snow Light Snow
10:50 AM 17.6 °F 10.7 °F 12.2 °F 79% 30.14 in 10.0 mi WNW 4.6 mph - N/A Snow Light Snow
11:09 AM 17.6 °F 12.3 °F 12.2 °F 79% 30.14 in 10.0 mi NW 3.5 mph - N/A   Overcast
11:30 AM 19.4 °F - 12.2 °F 74% 30.13 in 10.0 mi Calm Calm - N/A   Mostly Cloudy
11:49 AM 19.4 °F 14.3 °F 14.0 °F 80% 30.12 in 10.0 mi SSW 3.5 mph - N/A   Mostly Cloudy
12:09 PM 19.4 °F - 15.8 °F 86% 30.12 in 10.0 mi Calm Calm - N/A   Mostly Cloudy
12:30 PM 21.2 °F - 15.8 °F 80% 30.12 in 10.0 mi Calm Calm - N/A   Overcast
12:49 PM 21.2 °F - 15.8 °F 80% 30.12 in 10.0 mi Calm Calm - N/A   Mostly Cloudy
1:09 PM 21.2 °F 16.4 °F 15.8 °F 80% 30.11 in 10.0 mi WNW 3.5 mph - N/A   Mostly Cloudy
1:30 PM 21.2 °F - 15.8 °F 80% 30.11 in 10.0 mi Calm Calm - N/A   Scattered Clouds
1:49 PM 23.0 °F - 17.6 °F 80% 30.10 in 10.0 mi Calm Calm - N/A   Clear
2:09 PM 24.8 °F - 15.8 °F 69% 30.09 in 10.0 mi Calm Calm - N/A   Mostly Cloudy
2:30 PM 24.8 °F 19.1 °F 17.6 °F 74% 30.09 in 10.0 mi SW 4.6 mph - N/A   Mostly Cloudy
2:49 PM 24.8 °F - 17.6 °F 74% 30.09 in 10.0 mi Calm Calm - N/A   Scattered Clouds
3:09 PM 24.8 °F 20.5 °F 15.8 °F 69% 30.09 in 10.0 mi SW 3.5 mph - N/A   Scattered Clouds
3:30 PM 24.8 °F 20.5 °F 15.8 °F 69% 30.09 in 10.0 mi SSW 3.5 mph - N/A   Clear
3:49 PM 24.8 °F - 15.8 °F 69% 30.08 in 10.0 mi Calm Calm - N/A   Clear
4:09 PM 24.8 °F - 15.8 °F 69% 30.08 in 10.0 mi Calm Calm - N/A   Clear
4:30 PM 24.8 °F - 15.8 °F 69% 30.09 in 10.0 mi Calm Calm - N/A   Clear
4:49 PM 24.8 °F - 15.8 °F 69% 30.09 in 10.0 mi Calm Calm - N/A   Clear
5:09 PM 24.8 °F - 15.8 °F 69% 30.09 in 10.0 mi Calm Calm - N/A   Clear
5:29 PM 24.8 °F - 17.6 °F 74% 30.09 in 10.0 mi Calm Calm - N/A   Clear
5:49 PM 24.8 °F 17.9 °F 19.4 °F 80% 30.09 in 10.0 mi East 5.8 mph - N/A   Clear
6:10 PM 24.8 °F 20.5 °F 19.4 °F 80% 30.09 in 10.0 mi East 3.5 mph - N/A   Clear
6:29 PM 23.0 °F 17.0 °F 19.4 °F 86% 30.10 in 10.0 mi East 4.6 mph - N/A   Clear
6:49 PM 23.0 °F 17.0 °F 19.4 °F 86% 30.09 in 10.0 mi East 4.6 mph - N/A   Clear
7:10 PM 23.0 °F 18.4 °F 19.4 °F 86% 30.10 in 10.0 mi East 3.5 mph - N/A   Clear
7:29 PM 21.2 °F 14.9 °F 19.4 °F 93% 30.10 in 10.0 mi East 4.6 mph - N/A   Clear
7:49 PM 21.2 °F 13.6 °F 19.4 °F 93% 30.09 in 10.0 mi ESE 5.8 mph - N/A   Clear
8:10 PM 21.2 °F 14.9 °F 17.6 °F 86% 30.09 in 10.0 mi ESE 4.6 mph - N/A   Clear
8:29 PM 21.2 °F 13.6 °F 17.6 °F 86% 30.08 in 10.0 mi ESE 5.8 mph - N/A   Clear
8:49 PM 21.2 °F 13.6 °F 17.6 °F 86% 30.07 in 10.0 mi ESE 5.8 mph - N/A   Clear
9:10 PM 21.2 °F 16.4 °F 17.6 °F 86% 30.08 in 10.0 mi ESE 3.5 mph - N/A   Clear
9:29 PM 19.4 °F 14.3 °F 17.6 °F 93% 30.07 in 10.0 mi ESE 3.5 mph - N/A   Clear
10:10 PM 19.4 °F 12.8 °F 17.6 °F 93% 30.07 in 10.0 mi ESE 4.6 mph - N/A   Scattered Clouds
10:29 PM 19.4 °F 10.4 °F 17.6 °F 93% 30.07 in 10.0 mi ESE 6.9 mph - N/A   Mostly Cloudy
10:49 PM 19.4 °F 11.5 °F 17.6 °F 93% 30.07 in 10.0 mi SE 5.8 mph - N/A   Mostly Cloudy
11:09 PM 19.4 °F 10.4 °F 17.6 °F 93% 30.07 in 10.0 mi SE 6.9 mph - N/A   Mostly Cloudy
11:29 PM 19.4 °F 10.4 °F 17.6 °F 93% 30.06 in 10.0 mi SE 6.9 mph - N/A   Mostly Cloudy
11:49 PM 19.4 °F 9.5 °F 17.6 °F 93% 30.06 in 10.0 mi SE 8.1 mph - N/A   Overcast